• In Moldova, Republic
  • List of Countries
  • For 7 days
  • Water Temperature
  • Satellite Maps
  • Weather Map
  • Weather Widgets
  • user-avatar
    Login

    Hourly Weather Quito

    Today, 16 August, Wednesday

    Time Temperature Precipitation Wind Pressure Humidity
    00:00 +14°C° 0 mm 0 mps 622 mmHg 25%
    01:00 +14°C° 0 mm 0 mps 622 mmHg 27%
    02:00 +13°C° 0 mm 0 mps 622 mmHg 28%
    03:00 +13°C° 0 mm 0 mps 622 mmHg 30%
    04:00 +12°C° 0 mm 0 mps 621 mmHg 31%
    05:00 +13°C° 0 mm 0 mps 622 mmHg 31%
    06:00 +14°C° 0 mm 1 mps 622 mmHg 32%
    07:00 +16°C° 0 mm 1 mps 623 mmHg 29%
    08:00 +20°C° 0 mm 1 mps 624 mmHg 25%
    09:00 +23°C° 0 mm 1 mps 625 mmHg 22%
    10:00 +26°C° 0 mm 2 mps 626 mmHg 18%
    11:00 +28°C° 0 mm 2 mps 626 mmHg 17%
    12:00 +29°C° 0 mm 2 mps 626 mmHg 15%
    13:00 +31°C° 0 mm 1 mps 625 mmHg 13%
    14:00 +30°C° 0 mm 1 mps 625 mmHg 13%
    15:00 +30°C° 0 mm 2 mps 624 mmHg 13%
    16:00 +29°C° 0 mm 2 mps 623 mmHg 13%
    17:00 +27°C° 0 mm 1 mps 622 mmHg 16%
    18:00 +24°C° 0 mm 1 mps 622 mmHg 18%
    19:00 +21°C° 0 mm 1 mps 621 mmHg 21%
    20:00 +21°C° 0 mm 1 mps 621 mmHg 22%
    21:00 +20°C° 0 mm 1 mps 621 mmHg 22%
    22:00 +19°C° 0 mm 1 mps 621 mmHg 23%
    23:00 +19°C° 0 mm 1 mps 621 mmHg 24%

    Tomorrow, 17 August, Thursday

    Time Temperature Precipitation Wind Pressure Humidity
    00:00 +18°C° 0 mm 1 mps 621 mmHg 24%
    01:00 +18°C° 0 mm 1 mps 621 mmHg 25%
    02:00 +16°C° 0 mm 1 mps 621 mmHg 26%
    03:00 +16°C° 0 mm 1 mps 620 mmHg 27%
    04:00 +15°C° 0 mm 1 mps 620 mmHg 28%
    05:00 +15°C° 0 mm 1 mps 620 mmHg 28%
    06:00 +15°C° 0 mm 1 mps 621 mmHg 28%
    07:00 +15°C° 0 mm 2 mps 621 mmHg 29%
    08:00 +19°C° 0 mm 2 mps 622 mmHg 24%
    09:00 +24°C° 0 mm 2 mps 623 mmHg 18%
    10:00 +27°C° 0 mm 2 mps 624 mmHg 13%
    11:00 +30°C° 0 mm 2 mps 624 mmHg 12%
    12:00 +32°C° 0 mm 1 mps 624 mmHg 11%
    13:00 +34°C° 0 mm 1 mps 624 mmHg 10%
    14:00 +33°C° 0 mm 1 mps 624 mmHg 10%
    15:00 +32°C° 0 mm 1 mps 623 mmHg 10%
    16:00 +31°C° 0 mm 1 mps 622 mmHg 10%
    17:00 +29°C° 0 mm 1 mps 621 mmHg 12%
    18:00 +26°C° 0 mm 1 mps 621 mmHg 14%
    19:00 +23°C° 0 mm 1 mps 620 mmHg 16%
    20:00 +22°C° 0 mm 1 mps 621 mmHg 17%
    21:00 +21°C° 0 mm 1 mps 621 mmHg 17%
    22:00 +21°C° 0 mm 1 mps 621 mmHg 18%
    23:00 +20°C° 0 mm 1 mps 621 mmHg 19%

    Day after tomorrow, 18 August, Friday

    Time Temperature Precipitation Wind Pressure Humidity
    00:00 +19°C° 0 mm 1 mps 621 mmHg 20%
    01:00 +18°C° 0 mm 1 mps 621 mmHg 22%
    02:00 +18°C° 0 mm 1 mps 620 mmHg 23%
    03:00 +16°C° 0 mm 1 mps 620 mmHg 24%
    04:00 +15°C° 0 mm 1 mps 620 mmHg 26%
    05:00 +15°C° 0 mm 2 mps 620 mmHg 26%
    06:00 +16°C° 0 mm 2 mps 621 mmHg 26%
    07:00 +16°C° 0 mm 2 mps 622 mmHg 26%
    08:00 +19°C° 0 mm 2 mps 623 mmHg 21%
    09:00 +22°C° 0 mm 3 mps 624 mmHg 16%
    10:00 +26°C° 0 mm 3 mps 625 mmHg 11%
    11:00 +28°C° 0 mm 3 mps 624 mmHg 10%
    12:00 +29°C° 0 mm 3 mps 624 mmHg 10%
    13:00 +31°C° 0 mm 3 mps 624 mmHg 9%
    14:00 +31°C° 0 mm 3 mps 623 mmHg 9%
    15:00 +31°C° 0 mm 2 mps 623 mmHg 9%
    16:00 +30°C° 0 mm 2 mps 622 mmHg 10%
    17:00 +28°C° 0 mm 1 mps 622 mmHg 12%
    18:00 +25°C° 0 mm 1 mps 621 mmHg 14%
    19:00 +22°C° 0 mm 1 mps 621 mmHg 16%
    20:00 +21°C° 0 mm 1 mps 621 mmHg 17%
    21:00 +21°C° 0 mm 1 mps 622 mmHg 17%
    22:00 +20°C° 0 mm 1 mps 622 mmHg 18%
    23:00 +19°C° 0 mm 1 mps 622 mmHg 19%

    19 August, Saturday

    Time Temperature Precipitation Wind Pressure Humidity
    00:00 +18°C° 0 mm 1 mps 622 mmHg 20%
    01:00 +18°C° 0 mm 1 mps 621 mmHg 21%
    02:00 +16°C° 0 mm 1 mps 621 mmHg 23%
    03:00 +15°C° 0 mm 1 mps 621 mmHg 25%
    04:00 +14°C° 0 mm 1 mps 621 mmHg 27%
    05:00 +15°C° 0 mm 1 mps 621 mmHg 27%
    06:00 +15°C° 0 mm 1 mps 622 mmHg 27%
    07:00 +15°C° 0 mm 1 mps 623 mmHg 27%
    08:00 +19°C° 0 mm 2 mps 624 mmHg 23%
    09:00 +22°C° 0 mm 3 mps 625 mmHg 19%
    10:00 +26°C° 0 mm 4 mps 626 mmHg 15%
    11:00 +28°C° 0 mm 3 mps 625 mmHg 15%
    12:00 +30°C° 0 mm 3 mps 625 mmHg 15%
    13:00 +31°C° 0 mm 3 mps 625 mmHg 15%
    14:00 +31°C° 0 mm 3 mps 624 mmHg 15%
    15:00 +31°C° 0 mm 2 mps 624 mmHg 15%
    16:00 +31°C° 0 mm 2 mps 623 mmHg 14%
    17:00 +28°C° 0 mm 1 mps 623 mmHg 17%
    18:00 +26°C° 0 mm 1 mps 623 mmHg 20%
    19:00 +21°C° 0 mm 0 mps 622 mmHg 23%
    20:00 +20°C° 0 mm 0 mps 622 mmHg 23%
    21:00 +20°C° 0 mm 0 mps 623 mmHg 24%
    22:00 +19°C° 0 mm 0 mps 623 mmHg 25%
    23:00 +20°C° 0 mm 1 mps 623 mmHg 26%

    20 August, Sunday

    Time Temperature Precipitation Wind Pressure Humidity
    00:00 +20°C° 0 mm 1 mps 622 mmHg 27%
    01:00 +19°C° 0 mm 1 mps 622 mmHg 28%
    02:00 +18°C° 0 mm 1 mps 622 mmHg 29%
    03:00 +16°C° 0 mm 1 mps 622 mmHg 30%
    04:00 +16°C° 0 mm 1 mps 621 mmHg 31%
    05:00 +16°C° 0 mm 1 mps 622 mmHg 31%
    06:00 +16°C° 0 mm 1 mps 623 mmHg 30%
    07:00 +16°C° 0 mm 1 mps 624 mmHg 30%
    08:00 +20°C° 0 mm 2 mps 625 mmHg 25%
    09:00 +24°C° 0 mm 3 mps 625 mmHg 21%
    10:00 +28°C° 0 mm 4 mps 626 mmHg 16%
    11:00 +29°C° 0 mm 4 mps 626 mmHg 15%
    12:00 +30°C° 0 mm 4 mps 626 mmHg 15%
    13:00 +33°C° 0 mm 4 mps 625 mmHg 14%
    14:00 +33°C° 0 mm 3 mps 625 mmHg 15%
    15:00 +33°C° 0 mm 3 mps 625 mmHg 15%
    16:00 +31°C° 0 mm 3 mps 624 mmHg 16%
    17:00 +29°C° 0 mm 2 mps 624 mmHg 20%
    18:00 +27°C° 0 mm 2 mps 624 mmHg 24%
    19:00 +24°C° 0 mm 1 mps 624 mmHg 28%
    20:00 +24°C° 0 mm 1 mps 624 mmHg 31%
    21:00 +23°C° 0 mm 1 mps 624 mmHg 34%
    22:00 +22°C° 0 mm 1 mps 624 mmHg 37%
    23:00 +22°C° 0 mm 1 mps 624 mmHg 39%

    21 August, Monday

    Time Temperature Precipitation Wind Pressure Humidity
    00:00 +21°C° 0 mm 1 mps 623 mmHg 41%
    01:00 +19°C° 0 mm 0 mps 623 mmHg 43%
    02:00 +18°C° 0 mm 0 mps 623 mmHg 45%
    03:00 +17°C° 0 mm 0 mps 623 mmHg 48%
    04:00 +17°C° 0 mm 0 mps 622 mmHg 51%
    05:00 +17°C° 0 mm 0 mps 623 mmHg 50%
    06:00 +20°C° 0 mm 1 mps 623 mmHg 49%
    07:00 +20°C° 0 mm 1 mps 624 mmHg 48%
    08:00 +23°C° 0 mm 2 mps 625 mmHg 40%
    09:00 +26°C° 0 mm 3 mps 625 mmHg 31%
    10:00 +29°C° 0 mm 4 mps 626 mmHg 23%
    11:00 +30°C° 0 mm 4 mps 626 mmHg 21%
    12:00 +32°C° 0 mm 4 mps 625 mmHg 19%
    13:00 +34°C° 0 mm 4 mps 625 mmHg 16%
    14:00 +34°C° 0 mm 3 mps 624 mmHg 16%
    15:00 +34°C° 0 mm 3 mps 624 mmHg 15%
    16:00 +34°C° 0 mm 3 mps 624 mmHg 15%
    17:00 +30°C° 0 mm 2 mps 623 mmHg 17%
    18:00 +28°C° 0 mm 2 mps 623 mmHg 20%
    19:00 +26°C° 0 mm 1 mps 623 mmHg 22%
    20:00 +25°C° 0 mm 1 mps 623 mmHg 23%
    21:00 +24°C° 0 mm 2 mps 623 mmHg 23%
    22:00 +24°C° 0 mm 2 mps 623 mmHg 24%
    23:00 +23°C° 0 mm 2 mps 623 mmHg 24%
    Show more